Location: ???????
(55.3754°N, 39.3545°E)
Time: 18:37:27
(UTC+00:00)

Cosmos 1656 - Pass Details

Date: 14 April 2026
Orbit: 797 x 847 km, 71.1° (Epoch: 19 May)

Event Time Altitude Azimuth Distance (km) Brightness Sun altitude
Rises 20:15:35 0° 325° (NW) 3,316 8.1 -23.5°
Reaches altitude 10° 20:18:05 10° 331° (NNW) 2,385 7.1 -23.6°
Maximum altitude 20:23:23 50° 47° (NE) 1,020 4.2 -23.8°
Enters shadow 20:25:16 35° 99° (E) 1,280 4.4 -23.9°
